H1 CPF 2 NER 2024 8 11 9 224 01 glonass105 H2 0705202 9105 32276 2024 8 11 0 0 0 2024 8 14 23 45 0 900 1 1 0 0 0 1 H9 10 0 60533 0.00000 0 -18650247.343 -12185014.152 -12445596.166 10 0 60533 900.00000 0 -17075093.074 -11520344.154 -15060467.909 10 0 60533 1800.00000 0 -15157896.332 -10910928.396 -17383092.740 10 0 60533 2700.00000 0 -12938251.337 -10408301.491 -19368332.992 10 0 60533 3600.00000 0 -10466619.920 -10056464.464 -20977576.660 10 0 60533 4500.00000 0 -7802453.751 -9889912.870 -22179490.174 10 0 60533 5400.00000 0 -5011947.796 -9932078.993 -22950631.534 10 0 60533 6300.00000 0 -2165517.253 -10194254.327 -23275911.831 10 0 60533 7200.00000 0 664898.155 -10675038.534 -23148895.918 10 0 60533 8100.00000 0 3408591.365 -11360339.028 -22571936.019 10 0 60533 9000.00000 0 5998792.732 -12223922.325 -21556135.081 10 0 60533 9900.00000 0 8375210.308 -13228495.045 -20121139.849 10 0 60533 10800.00000 0 10486300.266 -14327270.109 -18294766.895 10 0 60533 11700.00000 0 12291173.061 -15465953.007 -16112468.027 10 0 60533 12600.00000 0 13761055.862 -16585064.965 -13616644.771 10 0 60533 13500.00000 0 14880250.397 -17622505.292 -10855824.760 10 0 60533 14400.00000 0 15646546.393 -18516244.646 -7883715.784 10 0 60533 15300.00000 0 16071073.745 -19207034.911 -4758156.034 10 0 60533 16200.00000 0 16177600.408 -19641020.433 -1539981.411 10 0 60533 17100.00000 0 16001306.594 -19772139.166 1708167.341 10 0 60533 18000.00000 0 15587088.293 -19564211.268 4923073.384 10 0 60533 18900.00000 0 14987463.170 -18992625.816 8042183.371 10 0 60533 19800.00000 0 14260168.836 -18045553.607 11004832.660 10 0 60533 20700.00000 0 13465556.461 -16724634.221 13753431.224 10 0 60533 21600.00000 0 12663891.145 -15045107.961 16234586.532 10 0 60533 22500.00000 0 11912674.101 -13035386.992 18400141.151 10 0 60533 23400.00000 0 11264100.342 -10736083.705 20208104.892 10 0 60533 24300.00000 0 10762759.285 -8198537.132 21623463.782 10 0 60533 25200.00000 0 10443674.997 -5482899.085 22618850.899 10 0 60533 26100.00000 0 10330768.044 -2655859.897 23175066.980 10 0 60533 27000.00000 0 10435802.852 211891.770 23281441.818 10 0 60533 27900.00000 0 10757863.934 3048369.882 22936030.517 10 0 60533 28800.00000 0 11283382.085 5783041.331 22145641.752 10 0 60533 29700.00000 0 11986708.714 8349512.455 20925698.286 10 0 60533 30600.00000 0 12831213.651 10688041.617 19299932.868 10 0 60533 31500.00000 0 13770860.128 12747774.971 17299925.651 10 0 60533 32400.00000 0 14752190.773 14488614.126 14964491.979 10 0 60533 33300.00000 0 15716641.505 15882639.634 12338932.078 10 0 60533 34200.00000 0 16603086.470 16915032.510 9474156.733 10 0 60533 35100.00000 0 17350507.517 17584456.702 6425705.334 10 0 60533 36000.00000 0 17900676.393 17902887.736 3252674.725 10 0 60533 36900.00000 0 18200737.105 17894895.618 16579.149 10 0 60533 37800.00000 0 18205579.904 17596412.783 -3219837.065 10 0 60533 38700.00000 0 17879906.815 17053039.273 -6393811.390 10 0 60533 39600.00000 0 17199901.394 16317956.669 -9443776.264 10 0 60533 40500.00000 0 16154431.725 15449538.606 -12310550.170 10 0 60533 41400.00000 0 14745735.088 14508758.420 -14938483.675 10 0 60533 42300.00000 0 12989554.252 13556502.988 -17276538.256 10 0 60533 43200.00000 0 10914718.212 12650905.703 -19279277.087 10 0 60533 44100.00000 0 8562183.229 11844810.806 -20907748.681 10 0 60533 45000.00000 0 5983572.630 11183475.756 -22130246.250 10 0 60533 45900.00000 0 3239274.569 10702608.446 -22922928.098 10 0 60533 46800.00000 0 396175.471 10426822.074 -23270286.874 10 0 60533 47700.00000 0 -2474877.876 10368573.084 -23165458.366 10 0 60533 48600.00000 0 -5301783.188 10527627.427 -22610363.403 10 0 60533 49500.00000 0 -8013942.967 10891078.281 -21615679.574 10 0 60533 50400.00000 0 -10544966.010 11433915.249 -20200642.574 10 0 60533 51300.00000 0 -12835198.142 12120121.810 -18392680.258 10 0 60533 52200.00000 0 -14833976.939 12904255.403 -16226885.665 10 0 60533 53100.00000 0 -16501516.471 13733443.961 -13745338.601 10 0 60533 54000.00000 0 -17810343.379 14549714.815 -10996288.394 10 0 60533 54900.00000 0 -18746224.195 15292557.365 -8033213.473 10 0 60533 55800.00000 0 -19308545.416 15901610.836 -4913776.192 10 0 60533 56700.00000 0 -19510130.686 16319362.519 -1698693.631 10 0 60533 57600.00000 0 -19376503.558 16493741.293 1549452.940 10 0 60533 58500.00000 0 -18944628.011 16380495.619 4767445.661 10 0 60533 59400.00000 0 -18261181.072 15945254.257 7892669.775 10 0 60533 60300.00000 0 -17380431.872 15165181.530 10864340.132 10 0 60533 61200.00000 0 -16361818.090 14030156.341 13624689.601 10 0 60533 62100.00000 0 -15267323.454 12543424.574 16120095.549 10 0 60533 63000.00000 0 -14158768.052 10721696.998 18302122.083 10 0 60533 63900.00000 0 -13095126.472 8594688.365 20128457.742 10 0 60533 64800.00000 0 -12129987.106 6204116.934 21563730.830 10 0 60533 65700.00000 0 -11309259.409 3602206.234 22580187.273 10 0 60533 66600.00000 0 -10669225.039 849751.558 23158218.777 10 0 60533 67500.00000 0 -10235013.843 -1986168.467 23286732.143 10 0 60533 68400.00000 0 -10019567.575 -4834740.472 22963353.658 10 0 60533 69300.00000 0 -10023133.655 -7624119.819 22194465.583 10 0 60533 70200.00000 0 -10233309.012 -10284177.629 20995074.793 10 0 60533 71100.00000 0 -10625631.203 -12749178.510 19388516.601 10 0 60533 72000.00000 0 -11164691.203 -14960279.064 17405999.743 10 0 60533 72900.00000 0 -11805720.716 -16867744.856 15086001.235 10 0 60533 73800.00000 0 -12496587.108 -18432795.096 12473522.538 10 0 60533 74700.00000 0 -13180112.176 -19628999.598 9619220.975 10 0 60533 75600.00000 0 -13796617.425 -20443171.066 6578432.676 10 0 60533 76500.00000 0 -14286589.018 -20875716.537 3410105.390 10 0 60533 77400.00000 0 -14593350.412 -20940434.132 175661.369 10 0 60533 78300.00000 0 -14665630.236 -20663764.328 -3062188.100 10 0 60533 79200.00000 0 -14459917.142 -20083527.542 -6240653.863 10 0 60533 80100.00000 0 -13942502.089 -19247201.284 -9298082.504 10 0 60533 81000.00000 0 -13091121.442 -18209809.318 -12175149.005 10 0 60533 81900.00000 0 -11896130.802 -17031511.459 -14816005.498 10 0 60533 82800.00000 0 -10361158.998 -15774995.180 -17169363.853 10 0 60533 83700.00000 0 -8503213.299 -14502778.453 -19189491.241 10 0 60533 84600.00000 0 -6352229.720 -13274536.967 -20837099.453 10 0 60533 85500.00000 0 -3950085.435 -12144567.830 -22080110.747 10 0 60534 0.00000 0 -1349112.919 -11159496.276 -22894285.341 10 0 60534 900.00000 0 1389825.420 -10356321.147 -23263698.635 10 0 60534 1800.00000 0 4199620.044 -9760882.630 -23181057.661 10 0 60534 2700.00000 0 7009465.543 -9386815.070 -22647851.670 10 0 60534 3600.00000 0 9747571.943 -9235030.534 -21674332.175 10 0 60534 4500.00000 0 12343925.395 -9293754.673 -20279322.631 10 0 60534 5400.00000 0 14732983.652 -9539113.906 -18489860.544 10 0 60534 6300.00000 0 16856194.275 -9936249.528 -16340678.177 10 0 60534 7200.00000 0 18664230.518 -10440912.008 -13873531.208 10 0 60534 8100.00000 0 20118851.385 -11001468.174 -11136387.868 10 0 60534 9000.00000 0 21194307.999 -11561236.311 -8182494.106 10 0 60534 9900.00000 0 21878237.237 -12061049.835 -5069333.020 10 0 60534 10800.00000 0 22172005.220 -12441940.210 -1857499.211 10 0 60534 11700.00000 0 22090486.780 -12647824.559 1390489.252 10 0 60534 12600.00000 0 21661290.757 -12628082.841 4611417.194 10 0 60534 13500.00000 0 20923464.871 -12339914.313 7742611.986 10 0 60534 14400.00000 0 19925736.042 -11750372.436 10723171.226 10 0 60534 15300.00000 0 18724361.567 -10837991.070 13495153.547 10 0 60534 16200.00000 0 17380683.158 -9593932.489 16004708.634 10 0 60534 17100.00000 0 15958488.032 -8022608.209 18203124.059 10 0 60534 18000.00000 0 14521289.091 -6141746.107 20047768.527 10 0 60534 18900.00000 0 13129639.085 -3981900.778 21502913.572 10 0 60534 19800.00000 0 11838591.656 -1585427.455 22540418.459 10 0 60534 20700.00000 0 10695415.464 995037.745 23140265.910 10 0 60534 21600.00000 0 9737656.415 3698528.085 23290939.369 10 0 60534 22500.00000 0 8991628.024 6458046.180 22989635.567 10 0 60534 23400.00000 0 8471391.822 9203118.545 22242309.256 10 0 60534 24300.00000 0 8178269.005 11862499.394 21063550.032 10 0 60534 25200.00000 0 8100902.412 14366912.383 19476294.124 10 0 60534 26100.00000 0 8215865.008 16651717.544 17511376.986 10 0 60534 27000.00000 0 8488788.371 18659393.849 15206935.275 10 0 60534 27900.00000 0 8875963.146 20341735.470 12607669.513 10 0 60534 28800.00000 0 9326343.851 21661671.489 9763981.262 10 0 60534 29700.00000 0 9783873.547 22594634.357 6731000.993 10 0 60534 30600.00000 0 10190030.606 23129420.946 3567524.879 10 0 60534 31500.00000 0 10486490.345 23268510.948 334880.651 10 0 60534 32400.00000 0 10617789.476 23027829.873 -2904255.972 10 0 60534 33300.00000 0 10533880.967 22435966.913 -6087071.676 10 0 60534 34200.00000 0 10192471.398 21532880.630 -9151829.530 10 0 60534 35100.00000 0 9561041.770 20368146.737 -12039063.178 10 0 60534 36000.00000 0 8618465.901 18998821.383 -14692728.254 10 0 60534 36900.00000 0 7356157.162 17487009.347 -17061288.732 10 0 60534 37800.00000 0 5778693.996 15897238.911 -19098717.264 10 0 60534 38700.00000 0 3903896.274 14293753.177 -20765390.196 10 0 60534 39600.00000 0 1762347.490 12737831.146 -22028859.912 10 0 60534 40500.00000 0 -603619.201 11285250.554 -22864489.550 10 0 60534 41400.00000 0 -3141430.675 9983998.627 -23255937.664 10 0 60534 42300.00000 0 -5790218.137 8872326.552 -23195483.185 10 0 60534 43200.00000 0 -8483116.624 7977229.190 -22684183.971 10 0 60534 44100.00000 0 -11149825.357 7313413.816 -21731865.313 10 0 60534 45000.00000 0 -13719323.291 6882801.270 -20356937.904 10 0 60534 45900.00000 0 -16122627.469 6674580.588 -18586048.026 10 0 60534 46800.00000 0 -18295479.524 6665814.884 -16453565.930 10 0 60534 47700.00000 0 -20180848.249 6822572.979 -14000921.641 10 0 60534 48600.00000 0 -21731143.452 7101538.830 -11275800.566 10 0 60534 49500.00000 0 -22910048.259 7452030.477 -8331214.265 10 0 60534 50400.00000 0 -23693892.706 7818342.493 -5224464.550 10 0 60534 51300.00000 0 -24072510.825 8142311.958 -2016021.466 10 0 60534 52200.00000 0 -24049545.213 8365998.173 1231662.310 10 0 60534 53100.00000 0 -23642186.580 8434361.297 4455376.581 10 0 60534 54000.00000 0 -22880360.070 8297825.244 7592393.222 10 0 60534 54900.00000 0 -21805393.423 7914614.930 10581695.065 10 0 60534 55800.00000 0 -20468224.277 7252767.868 13365169.071 10 0 60534 56700.00000 0 -18927223.337 6291734.121 15888739.827 10 0 60534 57600.00000 0 -17245726.119 5023496.323 18103420.905 10 0 60534 58500.00000 0 -15489378.096 3453162.061 19966263.576 10 0 60534 59400.00000 0 -13723405.343 1599003.391 21441184.798 10 0 60534 60300.00000 0 -12009925.429 -508058.440 22499659.074 10 0 60534 61200.00000 0 -10405410.987 -2825501.646 23121261.709 10 0 60534 62100.00000 0 -8958411.449 -5300742.377 23294053.983 10 0 60534 63000.00000 0 -7707627.115 -7873099.207 23014803.874 10 0 60534 63900.00000 0 -6680414.685 -10476102.279 22289039.041 10 0 60534 64800.00000 0 -5891785.103 -13040051.744 21130931.818 10 0 60534 65700.00000 0 -5343933.956 -15494719.974 19563018.979 10 0 60534 66600.00000 0 -5026322.522 -17772086.183 17615761.942 10 0 60534 67500.00000 0 -4916304.643 -19808990.837 15326955.872 10 0 60534 68400.00000 0 -4980272.059 -21549600.537 12740998.872 10 0 60534 69300.00000 0 -5175269.294 -22947581.783 9908034.941 10 0 60534 70200.00000 0 -5451009.690 -23967893.956 6882986.801 10 0 60534 71100.00000 0 -5752207.527 -24588127.521 3724496.718 10 0 60534 72000.00000 0 -6021127.852 -24799332.119 493795.346 10 0 60534 72900.00000 0 -6200246.559 -24606300.341 -2746479.910 10 0 60534 73800.00000 0 -6234908.459 -24027295.501 -5933494.504 10 0 60534 74700.00000 0 -6075871.071 -23093234.824 -9005431.075 10 0 60534 75600.00000 0 -5681626.486 -21846362.154 -11902685.138 10 0 60534 76500.00000 0 -5020402.833 -20338465.521 -14569019.089 10 0 60534 77400.00000 0 -4071760.111 -18628713.925 -16952652.235 10 0 60534 78300.00000 0 -2827712.075 -16781203.543 -19007265.782 10 0 60534 79200.00000 0 -1293325.505 -14862315.653 -20692903.434 10 0 60534 80100.00000 0 513229.985 -12937996.462 -21976750.119 10 0 60534 81000.00000 0 2561185.607 -11071072.208 -22833773.785 10 0 60534 81900.00000 0 4808211.441 -9318711.472 -23247217.700 10 0 60534 82800.00000 0 7201947.431 -7730140.567 -23208933.463 10 0 60534 83700.00000 0 9681965.235 -6344707.295 -22719547.862 10 0 60534 84600.00000 0 12182080.701 -5190373.966 -21788459.789 10 0 60534 85500.00000 0 14632921.738 -4282702.670 -20433666.534 10 0 60535 0.00000 0 16964645.170 -3624375.280 -18681422.232 10 0 60535 900.00000 0 19109690.911 -3205267.910 -16565733.280 10 0 60535 1800.00000 0 21005455.368 -3003077.303 -14127702.210 10 0 60535 2700.00000 0 22596776.321 -2984471.241 -11414729.169 10 0 60535 3600.00000 0 23838121.709 -3106714.885 -8479588.473 10 0 60535 4500.00000 0 24695391.239 -3319703.197 -5379397.418 10 0 60535 5400.00000 0 25147254.615 -3568312.617 -2174497.939 10 0 60535 6300.00000 0 25185969.734 -3794971.252 1072726.424 10 0 60535 7200.00000 0 24817646.468 -3942337.401 4299074.227 10 0 60535 8100.00000 0 24061945.193 -3955971.555 7441765.558 10 0 60535 9000.00000 0 22951223.361 -3786887.340 10439671.967 10 0 60535 9900.00000 0 21529166.868 -3393872.178 13234511.891 10 0 60535 10800.00000 0 19848964.778 -2745478.390 15771987.561 10 0 60535 11700.00000 0 17971105.201 -1821599.839 18002840.855 10 0 60535 12600.00000 0 15960885.872 -614566.985 19883807.454 10 0 60535 13500.00000 0 13885744.559 870286.100 21378451.104 10 0 60535 14400.00000 0 11812521.479 2614606.879 22457862.472 10 0 60535 15300.00000 0 9804768.207 4587562.386 23101209.911 10 0 60535 16200.00000 0 7920215.024 6746907.861 23296132.556 10 0 60535 17100.00000 0 6208501.435 9040541.579 23038969.216 10 0 60535 18000.00000 0 4709263.259 11408481.365 22334819.601 10 0 60535 18900.00000 0 3450654.468 13785181.031 21197437.528 10 0 60535 19800.00000 0 2448363.661 16102090.948 19648958.691 10 0 60535 20700.00000 0 1705164.479 18290357.035 17719468.526 10 0 60535 21600.00000 0 1211017.050 20283546.719 15446418.510 10 0 60535 22500.00000 0 943714.734 22020289.340 12873901.911 10 0 60535 23400.00000 0 870047.870 23446721.821 10051802.602 10 0 60535 24300.00000 0 947434.763 24518638.457 7034832.874 10 0 60535 25200.00000 0 1125950.771 25203255.713 3881478.313 10 0 60535 26100.00000 0 1350669.683 25480518.727 652869.698 10 0 60535 27000.00000 0 1564218.601 25343895.162 -2588396.674 10 0 60535 27900.00000 0 1709438.430 24800623.211 -5779467.745 10 0 60535 28800.00000 0 1732037.653 23871403.240 -8858448.298 10 0 60535 29700.00000 0 1583127.167 22589545.666 -11765598.087 10 0 60535 30600.00000 0 1221528.851 20999610.313 -14444488.402 10 0 60535 31500.00000 0 615759.914 19155593.662 -16843095.731 10 0 60535 32400.00000 0 -254391.544 17118739.273 -18914811.424 10 0 60535 33300.00000 0 -1396767.241 14955062.293 -20619347.858 10 0 60535 34200.00000 0 -2806263.397 12732690.938 -21923523.574 10 0 60535 35100.00000 0 -4464805.267 10519135.405 -22801912.146 10 0 60535 36000.00000 0 -6341874.471 8378597.733 -23237342.114 10 0 60535 36900.00000 0 -8395568.960 6369434.467 -23221238.011 10 0 60535 37800.00000 0 -10574153.161 4541877.682 -22753795.495 10 0 60535 38700.00000 0 -12818035.225 2936109.218 -21843986.624 10 0 60535 39600.00000 0 -15062090.170 1580768.380 -20509394.459 10 0 60535 40500.00000 0 -17238232.924 491955.300 -18775879.440 10 0 60535 41400.00000 0 -19278134.391 -327228.576 -16677083.168 10 0 60535 42300.00000 0 -21115967.156 -886583.882 -14253778.571 10 0 60535 43200.00000 0 -22691065.783 -1208165.145 -11553078.488 10 0 60535 44100.00000 0 -23950389.692 -1325108.951 -8627517.786 10 0 60535 45000.00000 0 -24850684.848 -1279988.676 -5534026.953 10 0 60535 45900.00000 0 -25360252.588 -1122766.332 -2332817.477 10 0 60535 46800.00000 0 -25460250.568 -908429.389 913798.624 10 0 60535 47700.00000 0 -25145470.840 -694414.008 4142631.103 10 0 60535 48600.00000 0 -24424562.080 -537925.256 7290850.742 10 0 60535 49500.00000 0 -23319686.858 -493269.259 10297220.321 10 0 60535 50400.00000 0 -21865628.794 -609311.579 13103292.265 10 0 60535 51300.00000 0 -20108387.913 -927170.520 15654548.912 10 0 60535 52200.00000 0 -18103324.001 -1478243.762 17901462.773 10 0 60535 53100.00000 0 -15912926.793 -2282652.260 19800456.045 10 0 60535 54000.00000 0 -13604307.096 -3348167.364 21314741.094 10 0 60535 54900.00000 0 -11246514.272 -4669666.524 22415026.221 10 0 60535 55800.00000 0 -8907792.253 -6229140.483 23080073.912 10 0 60535 56700.00000 0 -6652888.205 -7996251.725 23297101.857 10 0 60535 57600.00000 0 -4540525.265 -9929420.918 23062019.998 10 0 60535 58500.00000 0 -2621143.413 -11977396.133 22379500.052 10 0 60535 59400.00000 0 -935001.054 -14081239.734 21262876.942 10 0 60535 60300.00000 0 489285.419 -16176650.574 19733884.596 10 0 60535 61200.00000 0 1635705.000 -18196525.363 17822231.498 10 0 60535 62100.00000 0 2501280.105 -20073653.177 15565024.173 10 0 60535 63000.00000 0 3095943.055 -21743431.586 13006049.530 10 0 60535 63900.00000 0 3441867.669 -23146491.838 10194929.524 10 0 60535 64800.00000 0 3572285.208 -24231124.190 7186163.988 10 0 60535 65700.00000 0 3529835.257 -24955402.628 4038079.605 10 0 60535 66600.00000 0 3364521.514 -25288920.423 811704.879 10 0 60535 67500.00000 0 3131358.955 -25214064.075 -2430407.544 10 0 60535 68400.00000 0 2887811.702 -24726772.200 -5625388.751 10 0 60535 69300.00000 0 2691129.854 -23836747.275 -8711268.441 10 0 60535 70200.00000 0 2595697.742 -22567110.881 -11628173.449 10 0 60535 71100.00000 0 2650505.770 -20953516.236 -14319486.838 10 0 60535 72000.00000 0 2896852.861 -19042754.397 -16732945.127 10 0 60535 72900.00000 0 3366377.011 -16890911.634 -18821652.530 10 0 60535 73800.00000 0 4079497.793 -14561154.073 -20544992.610 10 0 60535 74700.00000 0 5044337.505 -12121231.348 -21869419.705 10 0 60535 75600.00000 0 6256167.734 -9640802.577 -22769114.801 10 0 60535 76500.00000 0 7697406.206 -7188695.485 -23226493.028 10 0 60535 77400.00000 0 9338165.786 -4830212.281 -23232552.687 10 0 60535 78300.00000 0 11137334.440 -2624594.077 -22787058.667 10 0 60535 79200.00000 0 13044142.620 -622749.103 -21898556.090 10 0 60535 80100.00000 0 15000153.953 1134660.816 -20584213.263 10 0 60535 81000.00000 0 16941597.085 2618695.944 -18869496.151 10 0 60535 81900.00000 0 18801941.886 3813115.070 -16787679.913 10 0 60535 82800.00000 0 20514612.409 4714812.131 -14379206.252 10 0 60535 83700.00000 0 22015722.838 5333695.206 -11690898.528 10 0 60535 84600.00000 0 23246721.247 5692013.587 -8775049.603 10 0 60535 85500.00000 0 24156829.430 5823162.109 -5688400.230 10 0 60536 0.00000 0 24705175.322 5770014.227 -2491028.481 10 0 60536 900.00000 0 24862527.773 5582855.463 754829.154 10 0 60536 1800.00000 0 24612559.063 5317006.147 3985996.850 10 0 60536 2700.00000 0 23952582.577 5030235.513 7139599.571 10 0 60536 3600.00000 0 22893733.704 4780078.133 10154294.653 10 0 60536 4500.00000 0 21460586.589 4621167.745 12971471.598 10 0 60536 5400.00000 0 19690223.217 4602702.468 15536395.619 10 0 60536 6300.00000 0 17630794.481 4766149.579 17799272.271 10 0 60536 7200.00000 0 15339634.275 5143287.427 19716212.303 10 0 60536 8100.00000 0 12881006.180 5754667.451 21250078.335 10 0 60536 9000.00000 0 10323577.379 6608561.184 22371197.527 10 0 60536 9900.00000 0 7737725.445 7700436.469 23057927.312 10 0 60536 10800.00000 0 5192790.028 9012984.718 23297064.290 10 0 60536 11700.00000 0 2754383.240 10516697.980 23084089.442 10 0 60536 12600.00000 0 481869.643 12170971.590 22423245.917 10 0 60536 13500.00000 0 -1573880.762 13925686.417 21327448.690 10 0 60536 14400.00000 0 -3372374.757 15723204.907 19818028.422 10 0 60536 15300.00000 0 -4884936.809 17500697.983 17924314.734 10 0 60536 16200.00000 0 -6095650.526 19192706.228 15683066.958 10 0 60536 17100.00000 0 -7001763.213 20733829.053 13137763.143 10 0 60536 18000.00000 0 -7613538.282 22061430.128 10337760.645 10 0 60536 18900.00000 0 -7953563.085 23118246.595 7337344.051 10 0 60536 19800.00000 0 -8055542.332 23854793.339 4194678.292 10 0 60536 20700.00000 0 -7962628.590 24231461.982 970686.727 10 0 60536 21600.00000 0 -7725360.665 24220226.704 -2272124.484 10 0 60536 22500.00000 0 -7399296.982 23805885.275 -5470873.351 10 0 60536 23400.00000 0 -7042443.955 22986782.834 -8563517.136 10 0 60536 24300.00000 0 -6712587.888 21774987.494 -11490052.237 10 0 60536 25200.00000 0 -6464643.083 20195909.571 -14193675.740 10 0 60536 26100.00000 0 -6348128.215 18287379.421 -16621886.192 10 0 60536 27000.00000 0 -6404877.742 16098221.404 -18727502.389 10 0 60536 27900.00000 0 -6667085.335 13686382.424 -20469580.507 10 0 60536 28800.00000 0 -7155762.515 11116692.084 -21814211.826 10 0 60536 29700.00000 0 -7879678.391 8458346.820 -22735185.601 10 0 60536 30600.00000 0 -8834826.328 5782221.843 -23214504.119 10 0 60536 31500.00000 0 -10004441.401 3158122.061 -23242739.697 10 0 60536 32400.00000 0 -11359569.449 652085.701 -22819226.338 10 0 60536 33300.00000 0 -12860165.419 -1676147.645 -21952081.743 10 0 60536 34200.00000 0 -14456676.362 -3775399.503 -20658058.568 10 0 60536 35100.00000 0 -16092043.923 -5604951.505 -18962227.031 10 0 60536 36000.00000 0 -17704043.216 -7136001.961 -16897494.199 10 0 60536 36900.00000 0 -19227860.422 -8352619.378 -14503968.604 10 0 60536 37800.00000 0 -20598800.901 -9252153.376 -11828181.947 10 0 60536 38700.00000 0 -21755013.770 -9845086.393 -8922182.743 10 0 60536 39600.00000 0 -22640117.623 -10154333.098 -5842519.554 10 0 60536 40500.00000 0 -23205616.014 -10214018.007 -2649133.983 10 0 60536 41400.00000 0 -23412999.896 -10067784.079 595814.409 10 0 60536 42300.00000 0 -23235447.425 -9766705.142 3829167.385 10 0 60536 43200.00000 0 -22659048.785 -9366891.969 6988006.685 10 0 60536 44100.00000 0 -21683503.775 -8926894.809 10010886.821 10 0 60536 45000.00000 0 -20322262.548 -8505013.777 12839036.951 10 0 60536 45900.00000 0 -18602103.592 -8156632.146 15417507.654 10 0 60536 46800.00000 0 -16562166.831 -7931686.316 17696239.839 10 0 60536 47700.00000 0 -14252482.889 -7872380.041 19631034.865 10 0 60536 48600.00000 0 -11732060.516 -8011239.671 21184407.330 10 0 60536 49500.00000 0 -9066612.452 -8369592.442 22326304.593 10 0 60536 50400.00000 0 -6326014.806 -8956531.600 23034679.958 10 0 60536 51300.00000 0 -3581605.636 -9768411.516 23295909.439 10 0 60536 52200.00000 0 -903434.640 -10788893.575 23105045.167 10 0 60536 53100.00000 0 1642422.573 -11989540.565 22465901.466 10 0 60536 54000.00000 0 3996375.255 -13330934.471 21390972.794 10 0 60536 54900.00000 0 6107550.541 -14764270.865 19901185.687 10 0 60536 55800.00000 0 7935657.568 -16233363.347 18025489.777 10 0 60536 56700.00000 0 9452406.994 -17676974.542 15800295.822 10 0 60536 57600.00000 0 10642428.542 -19031376.590 13268771.359 10 0 60536 58500.00000 0 11503650.017 -20233034.492 10480007.236 10 0 60536 59400.00000 0 12047123.444 -21221300.451 7488070.625 10 0 60536 60300.00000 0 12296306.871 -21941006.760 4350962.303 10 0 60536 61200.00000 0 12285832.952 -22344848.766 1129497.913 10 0 60536 62100.00000 0 12059816.732 -22395458.027 -2113865.587 10 0 60536 63000.00000 0 11669774.283 -22067078.506 -5316235.905 10 0 60536 63900.00000 0 11172240.093 -21346774.972 -8415500.673 10 0 60536 64800.00000 0 10626183.714 -20235122.271 -11351528.635 10 0 60536 65700.00000 0 10090334.630 -18746345.575 -14067333.627 10 0 60536 66600.00000 0 9620528.191 -16907904.635 -16510178.843 10 0 60536 67500.00000 0 9267184.596 -14759538.162 -18632600.115 10 0 60536 68400.00000 0 9073027.412 -12351806.918 -20393328.450 10 0 60536 69300.00000 0 9071138.155 -9744194.999 -21758093.976 10 0 60536 70200.00000 0 9283429.435 -7002847.141 -22700295.743 10 0 60536 71100.00000 0 9719601.750 -4198035.085 -23201524.280 10 0 60536 72000.00000 0 10376628.834 -1401457.394 -23251926.547 10 0 60536 72900.00000 0 11238794.379 1316515.835 -22850405.836 10 0 60536 73800.00000 0 12278279.889 3889539.487 -22004652.151 10 0 60536 74700.00000 0 13456280.185 6257819.426 -20731001.815 10 0 60536 75600.00000 0 14724600.855 8370363.173 -19054128.222 10 0 60536 76500.00000 0 16027671.412 10186861.707 -17006568.911 10 0 60536 77400.00000 0 17304890.025 11679123.970 -14628097.439 10 0 60536 78300.00000 0 18493201.398 12832004.428 -11964951.698 10 0 60536 79200.00000 0 19529799.083 13643785.200 -9068933.365 10 0 60536 80100.00000 0 20354837.694 14125997.228 -5996396.024 10 0 60536 81000.00000 0 20914039.931 14302688.922 -2807142.040 10 0 60536 81900.00000 0 21161087.266 14209174.072 436749.750 10 0 60536 82800.00000 0 21059692.326 13890313.182 3672141.706 10 0 60536 83700.00000 0 20585264.571 13398402.331 6836075.619 10 0 60536 84600.00000 0 19726098.131 12790760.300 9867006.317 10 0 60536 85500.00000 0 18484031.140 12127117.501 12706005.548 99